{"data":{"norad_id":63463,"epoch":"2026-09-20T23:31:19.914240Z","epoch_age_seconds":114210,"freshness":"FRESH","line1":"1 63463U 25070D   26263.98009160  .00015751  00000+0  58087-3 0  9997","line2":"2 63463  42.9981 236.9038 0000352 239.4992 120.5825 15.27568918 82843","mean_motion":15.27568918,"eccentricity":3.52e-5,"inclination_deg":42.9981,"raan_deg":236.9038,"arg_perigee_deg":239.4992,"mean_anomaly_deg":120.5825,"bstar":0.00058087,"rev_number":8284,"period_min":94.267432587287,"perigee_km":482.84076481635,"apogee_km":483.32379465364,"semimajor_km":6861.219279735,"source":"CELESTRAK","updated_at":"2026-09-21T09:00:35.007625Z"}}